Back to catalog

TITAN 34B AGENA D DEB

AliveHEO
NORAD 25588·DEBRIS·🇺🇸 United States

Launched Jul 31, 1983 from Vandenberg Space Force Base

Loading…

Next Passes (next 24 hours)

TLE

FreshSource: Space-Track

Epoch: Sep 13, 2026, 12:05 UTC

1 25588U 83078E   26256.50396512 -.00000021  00000-0  29592-3 0  9990
2 25588  63.6039  29.5232 7271708 272.7512  14.0316  2.20161825 58889

Track TITAN 34B AGENA D DEB in real time with AllMySat

Download on the App Store